DW6637 Weather Reports


time (UTC)temp
C
wind
direction
speed
KPH
gust
KPH
rain 1hr
cm
rain 24hr
cm
rain mn
cm
humidity
%
barometer
mb
20260507100019 12 236 0.0 0.0 0.00 0.00 0.00 88 1015.0
20260507094513 12 236 0.0 0.0 0.00 0.00 0.00 88 1015.0
20260507093010 12 237 0.0 0.0 0.00 0.00 0.00 88 1015.3
20260507091508 13 236 0.0 0.0 0.00 0.00 0.00 87 1015.5
20260507090006 13 236 0.0 0.0 0.00 0.00 0.00 87 1015.6
20260507084504 13 236 0.0 0.0 0.00 0.00 0.00 86 1015.7
20260507083002 13 237 0.0 0.0 0.00 0.00 0.00 86 1015.8
20260507081701 13 236 0.0 0.0 0.00 0.00 0.00 85 1015.8
20260507080113 13 236 0.0 0.0 0.00 0.00 0.00 84 1015.9
20260507074555 13 236 0.0 0.0 0.00 0.00 0.00 84 1015.8
20260507073052 14 236 0.0 0.0 0.00 0.00 0.00 83 1015.9
20260507071607 14 237 0.0 0.0 0.00 0.00 0.00 83 1015.9
20260507070048 15 236 0.0 0.0 0.00 0.00 0.00 83 1016.0
20260507064647 15 236 0.0 0.0 0.00 0.00 0.00 82 1016.1
20260507063047 15 236 0.0 0.0 0.00 0.00 0.00 81 1016.2
20260507061546 15 236 0.0 0.0 0.00 0.00 0.00 79 1016.1
20260507060050 15 236 0.0 0.0 0.00 0.00 0.00 79 1016.1
20260507054545 15 236 0.0 0.0 0.00 0.00 0.00 78 1016.1
20260507053110 16 236 0.0 0.0 0.00 0.00 0.00 77 1016.1
20260507051545 16 236 0.0 0.0 0.00 0.00 0.00 77 1016.0
20260507050046 16 236 0.0 0.0 0.00 0.00 0.00 75 1016.0
20260507044542 16 236 0.0 0.0 0.00 0.00 0.00 74 1015.9
20260507043041 17 235 0.0 0.0 0.00 0.00 0.00 73 1015.9
20260507041543 17 235 0.0 0.0 0.00 0.00 0.00 72 1015.8
20260507040040 17 235 0.0 0.0 0.00 0.00 0.00 70 1015.6
20260507034540 17 235 0.0 0.0 0.00 0.00 0.00 68 1015.4
20260507033044 18 235 0.0 0.0 0.00 0.00 0.00 67 1015.3
20260507031539 18 235 0.0 0.0 0.00 0.00 0.00 66 1015.1
20260507030039 19 235 0.0 0.0 0.00 0.00 0.00 66 1015.0
20260507024541 19 360 0.0 0.0 0.00 0.00 0.00 66 1014.8
20260507023038 20 207 0.0 0.0 0.00 0.00 0.00 63 1014.6
20260507021538 20 242 0.0 0.0 0.00 0.00 0.00 62 1014.5
20260507020041 21 245 0.0 0.0 0.00 0.00 0.00 61 1014.4
20260507014545 21 72 0.0 0.0 0.00 0.00 0.00 59 1014.3
20260507013034 22 253 0.0 0.0 0.00 0.00 0.00 57 1014.3
20260507011539 22 276 0.0 0.0 0.00 0.00 0.00 55 1014.2
20260507010036 24 214 0.0 0.0 0.00 0.00 0.00 51 1014.0
20260507004537 25 233 0.0 0.0 0.00 0.00 0.00 48 1014.0
20260507003030 26 266 0.0 0.0 0.00 0.00 0.00 48 1014.0
20260507001530 26 194 0.0 0.0 0.00 0.00 0.00 47 1013.9
20260507000029 26 285 0.0 0.0 0.00 0.00 0.00 47 1013.9
20260506234527 26 257 0.0 0.0 0.00 0.00 0.00 48 1013.9
20260506233025 25 264 0.0 0.0 0.00 0.00 0.00 49 1014.0
20260506231524 25 86 0.0 1.6 0.00 0.00 0.00 48 1014.0
20260506230022 26 274 0.0 1.6 0.00 0.00 0.00 46 1014.2
20260506224521 26 30 0.0 0.0 0.00 0.00 0.00 45 1014.2
20260506223018 26 92 0.0 0.0 0.00 0.00 0.00 44 1014.4
20260506221516 26 60 0.0 0.0 0.00 0.00 0.00 45 1014.5
20260506220029 27 290 0.0 0.0 0.00 0.00 0.00 46 1014.7
20260506214511 26 241 0.0 0.0 0.00 0.00 0.00 47 1014.8
20260506213009 26 262 0.0 0.0 0.00 0.00 0.00 47 1015.0
20260506211508 26 134 0.0 0.0 0.00 0.00 0.00 47 1015.2
20260506210010 26 255 0.0 0.0 0.00 0.00 0.00 48 1015.3
20260506204503 26 252 0.0 0.0 0.00 0.00 0.00 47 1015.5
20260506203100 26 98 0.0 0.0 0.00 0.00 0.00 46 1015.6
20260506201600 26 269 0.0 0.0 0.00 0.00 0.00 47 1015.7
20260506200105 26 260 0.0 0.0 0.00 0.00 0.00 45 1016.1
20260506194604 26 264 0.0 0.0 0.00 0.00 0.00 46 1016.2
20260506193054 25 270 0.0 0.0 0.00 0.00 0.00 50 1016.4
20260506191554 25 214 0.0 0.0 0.00 0.00 0.00 48 1016.6
20260506190046 24 264 0.0 0.0 0.00 0.00 0.00 49 1016.8
20260506184548 24 212 0.0 0.0 0.00 0.00 0.00 48 1017.0
20260506183043 23 222 0.0 0.0 0.00 0.00 0.00 51 1017.1
20260506181549 23 108 0.0 0.0 0.00 0.00 0.00 50 1017.3
20260506180048 22 203 0.0 0.0 0.00 0.00 0.00 52 1017.2
20260506174534 22 222 0.0 0.0 0.00 0.00 0.00 54 1017.3
20260506173036 22 218 0.0 0.0 0.00 0.00 0.00 54 1017.3
20260506171530 21 87 0.0 0.0 0.00 0.00 0.00 54 1017.5
20260506170029 21 221 0.0 0.0 0.00 0.00 0.00 55 1017.3
20260506164528 20 109 0.0 0.0 0.00 0.00 0.00 56 1017.4
20260506163025 20 210 0.0 0.0 0.00 0.00 0.00 58 1017.4
20260506161522 20 106 0.0 0.0 0.00 0.00 0.00 63 1017.4
20260506160019 19 86 0.0 0.0 0.00 0.00 0.00 61 1017.5
20260506154515 18 193 0.0 0.0 0.00 0.00 0.00 68 1017.5
20260506153011 17 91 0.0 0.0 0.00 0.00 0.00 70 1017.7
20260506151507 16 107 0.0 0.0 0.00 0.00 0.00 76 1017.7
20260506150002 13 120 0.0 0.0 0.00 0.00 0.00 85 1017.6
20260506144608 13 100 0.0 0.0 0.00 0.00 0.00 85 1017.7
20260506143055 12 113 0.0 0.0 0.00 0.00 0.00 88 1017.5
20260506141554 12 106 0.0 0.0 0.00 0.00 0.00 91 1017.4
20260506140053 11 103 0.0 0.0 0.00 0.00 0.00 93 1017.4
20260506134554 11 103 0.0 0.0 0.00 0.00 0.00 94 1017.3
20260506133053 11 103 0.0 0.0 0.00 0.00 0.00 93 1017.2
20260506131546 11 103 0.0 0.0 0.00 0.00 0.00 93 1016.9
20260506130046 11 103 0.0 0.0 0.00 0.00 0.00 93 1016.8
20260506124543 10 101 0.0 0.0 0.00 0.03 0.00 93 1016.8
20260506123042 10 102 0.0 0.0 0.00 0.03 0.00 92 1016.6
20260506121540 11 101 0.0 0.0 0.00 0.03 0.00 93 1016.5
20260506120039 11 100 0.0 0.0 0.00 0.03 0.00 92 1016.4
20260506114537 11 102 0.0 0.0 0.00 0.08 0.00 93 1016.4
20260506113037 11 100 0.0 0.0 0.00 0.08 0.00 92 1016.3
20260506111535 11 100 0.0 0.0 0.00 0.08 0.00 91 1016.3
20260506110036 11 100 0.0 0.0 0.00 0.08 0.00 90 1016.2
20260506104535 11 100 0.0 0.0 0.00 0.23 0.00 90 1016.4
20260506103032 12 100 0.0 0.0 0.00 0.23 0.00 90 1016.3
20260506101531 12 100 0.0 0.0 0.00 0.23 0.00 90 1016.3